Change the Weather History Date:

Tuesday, March 26, 2013

  Actual Average Record
Temperature  
Mean Temperature 43 °F 61 °F  
Max Temperature 54 °F 74 °F 87 °F (2011)
Min Temperature 31 °F 48 °F 30 °F (1979)
Degree Days  
Heating Degree Days 22 5  
Month to date heating degree days 303 192  
Since 1 July heating degree days 1696 1870  
Cooling Degree Days 0 1  
Month to date cooling degree days 9 26  
Year to date cooling degree days 37 41  
Moisture  
Dew Point 24 °F    
Average Humidity 50    
Maximum Humidity 72    
Minimum Humidity 28    
Precipitation  
Precipitation 0.00 in 0.19 in 2.09 in (1988)
Month to date precipitation 1.83 4.60  
Year to date precipitation 20.26 15.73  
Sea Level Pressure  
Sea Level Pressure 30.34 in    
Wind  
Wind Speed 8 mph (NW)    
Max Wind Speed 18 mph    
Max Gust Speed 23 mph    
Visibility 10 miles    
Events      
T = Trace of Precipitation, MM = Missing Value Source: NWS Daily Summary

Daily Weather History Graph

Daily Weather History Graph

Search for Another Location

Airport or City:

Trip Planner

Search our weather history database for the weather conditions in past years. The results will help you decide how hot, cold, wet, or windy it might be!

Date:

Astronomy

Mar. 26, 2013 Rise Set
Actual Time 6:52 AM CDT 7:12 PM CDT
Civil Twilight 6:28 AM CDT 7:36 PM CDT
Nautical Twilight 6:00 AM CDT 8:05 PM CDT
Astronomical Twilight 5:31 AM CDT 8:34 PM CDT
Moon 6:48 PM CDT (3/26) 6:08 AM CDT (3/26)
Length of Visible Light 13h 08m
Length of Day
12h 19m
Waxing Gibbous, 99% of the Moon is Illuminated
Mar 26
Waxing Gibbous
Mar 27
Full
Apr 2
Last Quarter
Apr 10
New
Apr 18
First Quarter

Hourly Weather History & Observations

Time (CDT) Temp. Windchill Dew Point Humidity Pressure Visibility Wind Dir Wind Speed Gust Speed Precip Events Conditions
12:53 AM 39.0 °F 34.8 °F 26.1 °F 60% 30.29 in 10.0 mi NNW 5.8 mph - N/A   Clear
1:53 AM 37.0 °F 33.3 °F 25.0 °F 62% 30.30 in 10.0 mi NW 4.6 mph - N/A   Clear
2:53 AM 36.0 °F 32.1 °F 24.1 °F 62% 30.30 in 10.0 mi NW 4.6 mph - N/A   Clear
3:53 AM 35.1 °F 31.0 °F 24.1 °F 64% 30.31 in 10.0 mi NW 4.6 mph - N/A   Clear
4:53 AM 33.1 °F - 25.0 °F 72% 30.31 in 10.0 mi Calm Calm - N/A   Clear
5:53 AM 32.0 °F - 25.0 °F 75% 30.32 in 10.0 mi Calm Calm - N/A   Clear
6:53 AM 32.0 °F 28.7 °F 24.1 °F 73% 30.34 in 10.0 mi West 3.5 mph - N/A   Clear
7:53 AM 34.0 °F 28.8 °F 25.0 °F 70% 30.36 in 10.0 mi WNW 5.8 mph - N/A   Clear
8:53 AM 39.0 °F 33.4 °F 24.1 °F 55% 30.38 in 10.0 mi NW 8.1 mph - N/A   Clear
9:53 AM 42.1 °F 36.6 °F 23.0 °F 47% 30.38 in 10.0 mi NNW 9.2 mph - N/A   Partly Cloudy
10:53 AM 44.1 °F 37.4 °F 21.0 °F 40% 30.38 in 10.0 mi West 13.8 mph 20.7 mph N/A   Clear
11:53 AM 46.0 °F 41.9 °F 19.9 °F 35% 30.38 in 10.0 mi NNW 8.1 mph 20.7 mph N/A   Clear
12:53 PM 48.9 °F - 21.9 °F 35% 30.35 in 10.0 mi NNW 13.8 mph 23.0 mph N/A   Clear
1:53 PM 50.0 °F - 21.9 °F 33% 30.34 in 10.0 mi WNW 16.1 mph 19.6 mph N/A   Clear
2:53 PM 53.1 °F - 23.0 °F 31% 30.32 in 10.0 mi NW 11.5 mph 19.6 mph N/A   Clear
3:53 PM 53.1 °F - 21.9 °F 30% 30.31 in 10.0 mi NW 10.4 mph 21.9 mph N/A   Clear
4:53 PM 53.1 °F - 21.9 °F 30% 30.31 in 10.0 mi North 10.4 mph 20.7 mph N/A   Clear
5:53 PM 52.0 °F - 21.9 °F 31% 30.31 in 10.0 mi North 10.4 mph 19.6 mph N/A   Clear
6:53 PM 48.9 °F - 21.9 °F 35% 30.32 in 10.0 mi NNW 10.4 mph - N/A   Clear
7:53 PM 46.9 °F - 24.1 °F 41% 30.35 in 10.0 mi NNW 5.8 mph - N/A   Clear
8:53 PM 45.0 °F 40.6 °F 26.1 °F 48% 30.37 in 10.0 mi NNW 8.1 mph - N/A   Clear
9:53 PM 43.0 °F 37.7 °F 26.1 °F 51% 30.39 in 10.0 mi NNW 9.2 mph - N/A   Clear
10:53 PM 41.0 °F 35.8 °F 26.1 °F 55% 30.40 in 10.0 mi NNW 8.1 mph - N/A   Clear
11:53 PM 39.0 °F 36.8 °F 26.1 °F 60% 30.41 in 10.0 mi NNW 3.5 mph - N/A   Clear